Weather History for CXSE - April, 2013

Change the Weather History Date:

Thursday, April 4, 2013

  Actual Average Record
Temperature  
Mean Temperature -25 °F -  
Max Temperature -15 °F - - ()
Min Temperature -35 °F - - ()
Degree Days  
Heating Degree Days 90    
Moisture  
Dew Point -30 °F    
Average Humidity 71    
Maximum Humidity 78    
Minimum Humidity 50    
Precipitation  
Precipitation 0.00 in - - ()
Sea Level Pressure  
Sea Level Pressure 30.51 in    
Wind  
Wind Speed 4 mph ()    
Max Wind Speed 10 mph    
Max Gust Speed -    
T = Trace of Precipitation, MM = Missing Value Source: Averaged Metar Reports

Daily Weather History Graph

Daily Weather History Graph

Search for Another Location

Airport or City:

Trip Planner

Search our weather history database for the weather conditions in past years. The results will help you decide how hot, cold, wet, or windy it might be!

Date:

Astronomy

Apr. 04, 2013 Rise Set
Actual Time 5:28 AM MDT 8:43 PM MDT
Civil Twilight 3:57 AM MDT 10:16 PM MDT
Nautical Twilight 1:36 AM MDT Sun does not set
Astronomical Twilight Sun does not set Sun does not set
Moon 6:44 AM MDT (4/4) 10:26 AM MDT (4/4)
Length of Visible Light 18h 18m
Length of Day
15h 14m
Waning Crescent, 33% of the Moon is Illuminated
Apr 4
Waning Crescent
Apr 10
New
Apr 18
First Quarter
Apr 25
Full
May 2
Last Quarter

Hourly Weather History & Observations

Time (MDT) Temp. Windchill Dew Point Humidity Pressure Visibility Wind Dir Wind Speed Gust Speed Precip Events Conditions
12:00 AM -30 °F - -36 °F 56% 30.41 in - East 1.2 mph - -  
12:00 AM -30.1 °F - -36.2 °F 72% 30.41 in - East 1.2 mph - N/A   Unknown
2:00 AM -33.9 °F - -40.5 °F 70% 30.43 in - SW 1.2 mph - N/A   Unknown
3:00 AM -31.4 °F - -37.3 °F 73% 30.44 in - NW 2.3 mph - N/A   Unknown
4:00 AM -32.8 °F - -38.9 °F 72% - - North 2.3 mph - N/A   Unknown
5:00 AM - - - N/A% - - North - - N/A   Unknown
6:00 AM -35 °F - -42 °F 50% 30.48 in - NW 1.2 mph - -  
6:00 AM -35.1 °F - -42.2 °F 68% 30.48 in - NW 1.2 mph - N/A   Unknown
7:00 AM -31.2 °F - -38.4 °F 68% 30.49 in - WNW 2.3 mph - N/A   Unknown
8:00 AM -27.8 °F -39.6 °F -34.6 °F 70% - - West 3.5 mph - N/A   Unknown
9:00 AM -29.4 °F -41.4 °F -36.0 °F 70% 30.50 in - West 3.5 mph - N/A   Unknown
11:00 AM -22.2 °F -35.8 °F -28.7 °F 72% 30.52 in - WSW 4.6 mph - N/A   Unknown
1:00 PM -18.9 °F -35.8 °F -25.1 °F 74% 30.53 in - West 6.9 mph - N/A   Unknown
2:00 PM -17.3 °F -33.8 °F -23.4 °F 74% 30.54 in - West 6.9 mph - N/A   Unknown
3:00 PM -15.5 °F -31.6 °F -21.5 °F 75% 30.55 in - West 6.9 mph - N/A   Unknown
4:00 PM -17.0 °F -34.8 °F -22.9 °F 74% 30.55 in - West 8.1 mph - N/A   Unknown
5:00 PM -18.9 °F -39.8 °F -24.9 °F 74% 30.55 in - WSW 10.4 mph - N/A   Unknown
6:00 PM -18 °F - -24 °F 60% 30.56 in - WSW 10.4 mph - -  
6:00 PM -18.4 °F -39.1 °F -24.0 °F 76% 30.56 in - WSW 10.4 mph - N/A   Unknown
7:00 PM -18.2 °F -36.4 °F -23.6 °F 76% 30.56 in - WSW 8.1 mph - N/A   Unknown
8:00 PM -16.8 °F -34.6 °F -22.0 °F 77% 30.56 in - West 8.1 mph - N/A   Unknown
9:00 PM -17.0 °F -34.8 °F -22.0 °F 78% 30.55 in - West 8.1 mph - N/A   Unknown
10:00 PM -18.0 °F -37.5 °F -23.4 °F 76% 30.55 in - West 9.2 mph - N/A   Unknown
11:00 PM -17.0 °F -34.8 °F -22.0 °F 78% 30.54 in - WNW 8.1 mph - N/A   Unknown